����,���ϕ���(m/s),���ϕ���,�ő�u�ԕ���(m/s),�ő啗��������,�C��(��),���x(%),10���Ԉړ��ώZ�J��(mm),1���Ԉړ��ώZ�J��(mm),���J��(mm),�݌v�J��(mm)
2021-05-17T00:00:00+09:00,1.6,��쐼,6.3,��쐼,24.2,85.4,0,0,6,7.5
2021-05-17T00:01:00+09:00,1.7,��쐼,6.3,��쐼,24.2,85.3,0,0,0,7.5
2021-05-17T00:02:00+09:00,1.7,��쐼,6,��,24.2,85.2,0,0,0,7.5
2021-05-17T00:03:00+09:00,1.5,��쐼,5.9,�쐼,24.2,85.2,0,0,0,7.5
2021-05-17T00:04:00+09:00,1.7,��,6.3,��쐼,24.2,85,0,0,0,7.5
2021-05-17T00:05:00+09:00,1.7,��,6.3,��쐼,24.2,84.9,0,0,0,7.5
2021-05-17T00:06:00+09:00,1.7,��,6.3,��쐼,24.1,84.8,0,0,0,7.5
2021-05-17T00:07:00+09:00,1.8,��,6.3,��쐼,24.1,85.2,0,0,0,7.5
2021-05-17T00:08:00+09:00,1.8,��,6.3,��쐼,24.1,85.2,0,0,0,7.5
2021-05-17T00:09:00+09:00,2,��,6.3,��쐼,24.1,85.3,0,0,0,7.5
2021-05-17T00:10:00+09:00,1.9,��쐼,6.3,��쐼,24.1,85.3,0,0,0,7.5
2021-05-17T00:11:00+09:00,1.8,��,6.3,��쐼,24,85.4,0,0,0,7.5
2021-05-17T00:12:00+09:00,1.7,��,6.3,��쐼,24,85.7,0,0,0,7.5
2021-05-17T00:13:00+09:00,2,��쐼,7.1,��,24.1,85.8,0,0,0,7.5
2021-05-17T00:14:00+09:00,1.9,��쐼,7.1,��,24.1,85.7,0,0,0,7.5
2021-05-17T00:15:00+09:00,2,��쐼,7.1,��,24.1,85.7,0,0,0,7.5
2021-05-17T00:16:00+09:00,2,��쐼,7.1,��,24.1,85.6,0,0,0,7.5
2021-05-17T00:17:00+09:00,2.1,��쐼,7.1,��,24,85.6,0,0,0,7.5
2021-05-17T00:18:00+09:00,2.2,��쐼,7.1,��,24.1,85.8,0,0,0,7.5
2021-05-17T00:19:00+09:00,2.2,��,7.1,��,24.1,85.8,0,0,0,7.5
2021-05-17T00:20:00+09:00,2.4,��,7.1,��,24.1,85.8,0,0,0,7.5
2021-05-17T00:21:00+09:00,2.5,��,7.1,��,24.1,85.8,0,0,0,7.5
2021-05-17T00:22:00+09:00,2.6,��,7.1,��,24.1,85.8,0,0,0,7.5
2021-05-17T00:23:00+09:00,2.5,��,6.2,��쓌,24.1,85.7,0,0,0,7.5
2021-05-17T00:24:00+09:00,2.5,��,6.5,��쓌,24.1,85.7,0,0,0,7.5
2021-05-17T00:25:00+09:00,2.7,��,8.9,��,24.1,85.6,0,0,0,7.5
2021-05-17T00:26:00+09:00,2.8,��,8.9,��,24.1,85.5,0,0,0,7.5
2021-05-17T00:27:00+09:00,2.9,��,8.9,��,24.1,85.5,0,0,0,7.5
2021-05-17T00:28:00+09:00,2.9,��,8.9,��,24.1,85.5,0,0,0,7.5
2021-05-17T00:29:00+09:00,2.8,��,8.9,��,24.1,85.5,0,0,0,7.5
2021-05-17T00:30:00+09:00,2.8,��,8.9,��,24.1,85.7,0,0,0,7.5
2021-05-17T00:31:00+09:00,2.7,��쐼,8.9,��,23.9,85.8,0,0,0,7.5
2021-05-17T00:32:00+09:00,2.5,��쐼,8.9,��,23.9,86,0,0,0,7.5
2021-05-17T00:33:00+09:00,2.3,��쐼,8.9,��,23.9,86.3,0,0,0,7.5
2021-05-17T00:34:00+09:00,2.4,��쐼,8.9,��,23.9,86.4,0,0,0,7.5
2021-05-17T00:35:00+09:00,2.1,��쐼,7.9,��쓌,24,86.5,0,0,0,7.5
2021-05-17T00:36:00+09:00,2,��쐼,7.9,��쓌,24,86.5,0,0,0,7.5
2021-05-17T00:37:00+09:00,1.9,��쐼,6.2,��,24.1,86.4,0,0,0,7.5
2021-05-17T00:38:00+09:00,1.9,��쐼,6.2,��,24.1,86.2,0,0,0,7.5
2021-05-17T00:39:00+09:00,1.9,��쐼,6.2,��,24.1,86.1,0,0,0,7.5
2021-05-17T00:40:00+09:00,1.9,�쐼,6.2,��,24.1,86,0,0,0,7.5
2021-05-17T00:41:00+09:00,1.9,�쐼,6.2,��,24,86.1,0,0,0,7.5
2021-05-17T00:42:00+09:00,1.8,��쐼,6.2,��,24,86.3,0,0,0,7.5
2021-05-17T00:43:00+09:00,1.9,��쐼,6.2,��,24,86.4,0,0,0,7.5
2021-05-17T00:44:00+09:00,1.7,��쐼,6.1,��쐼,24.1,86.3,0,0,0,7.5
2021-05-17T00:45:00+09:00,1.5,��쐼,5.7,��쐼,24,86.3,0,0,0,7.5
2021-05-17T00:46:00+09:00,1.4,��쐼,5.2,�쐼,23.9,86.6,0,0,0,7.5
2021-05-17T00:47:00+09:00,1.1,��쐼,5.2,�쐼,23.8,86.7,0,0,0,7.5
2021-05-17T00:48:00+09:00,1,��쐼,4.8,���쐼,23.9,86.9,0,0,0,7.5
2021-05-17T00:49:00+09:00,1,��쐼,4.8,���쐼,23.9,86.9,0,0,0,7.5
2021-05-17T00:50:00+09:00,1,��쐼,4.2,�쐼,23.9,87,0,0,0,7.5
2021-05-17T00:51:00+09:00,1,��쐼,4.7,���쐼,23.9,87,0,0,0,7.5
2021-05-17T00:52:00+09:00,1,��쐼,4.7,���쐼,23.9,86.9,0,0,0,7.5
2021-05-17T00:53:00+09:00,1.1,��쐼,5,��,23.9,87,0,0,0,7.5
2021-05-17T00:54:00+09:00,1.2,��쐼,5.8,��,24,86.9,0,0,0,7.5
2021-05-17T00:55:00+09:00,1.5,��쐼,5.8,��,24,86.7,0,0,0,7.5
2021-05-17T00:56:00+09:00,1.7,��쐼,5.8,��,23.9,86.8,0,0,0,7.5
2021-05-17T00:57:00+09:00,2.1,��쐼,7.9,�쐼,24,86.8,0,0,0,7.5
2021-05-17T00:58:00+09:00,2.2,��쐼,7.9,�쐼,24,86.7,0,0,0,7.5
2021-05-17T00:59:00+09:00,2.3,��쐼,7.9,�쐼,24,86.7,0,0,0,7.5
2021-05-17T01:00:00+09:00,2.3,��쐼,7.9,�쐼,24,86.6,0,0,0,7.5
2021-05-17T01:01:00+09:00,2.4,��,7.9,�쐼,24,86.7,0,0,0,7.5
2021-05-17T01:02:00+09:00,2.5,��,7.9,�쐼,24,86.6,0,0,0,7.5
2021-05-17T01:03:00+09:00,2.5,��,7.9,�쐼,24,86.6,0,0,0,7.5
2021-05-17T01:04:00+09:00,2.3,��쐼,7.9,�쐼,23.9,86.6,0,0,0,7.5
2021-05-17T01:05:00+09:00,2.2,��쐼,7.9,�쐼,23.9,86.9,0,0,0,7.5
2021-05-17T01:06:00+09:00,2,��쐼,7.9,�쐼,23.8,87,0,0,0,7.5
2021-05-17T01:07:00+09:00,1.7,��쐼,6.4,��쐼,23.8,87.2,0,0,0,7.5
2021-05-17T01:08:00+09:00,1.5,��쐼,4.8,�쐼,23.8,87.4,0,0,0,7.5
2021-05-17T01:09:00+09:00,1.5,��쐼,4.8,�쐼,23.9,87.5,0,0,0,7.5
2021-05-17T01:10:00+09:00,1.5,��쐼,5,��,23.9,87.4,0,0,0,7.5
2021-05-17T01:11:00+09:00,1.5,��쐼,5.1,��쐼,23.9,87.2,0,0,0,7.5
2021-05-17T01:12:00+09:00,1.4,��쐼,5.1,��쐼,24,87.2,0,0,0,7.5
2021-05-17T01:13:00+09:00,1.6,��,5.3,��쓌,24.1,87.1,0,0,0,7.5
2021-05-17T01:14:00+09:00,1.7,��,5.3,��쓌,24.1,86.7,0,0,0,7.5
2021-05-17T01:15:00+09:00,1.7,��쐼,5.3,��쓌,24.1,86.5,0,0,0,7.5
2021-05-17T01:16:00+09:00,1.7,��,5.3,��쓌,24,86.4,0,0,0,7.5
2021-05-17T01:17:00+09:00,1.7,��,5.3,��쓌,24,86.5,0,0,0,7.5
2021-05-17T01:18:00+09:00,1.7,��,5.3,��쓌,24,86.3,0,0,0,7.5
2021-05-17T01:19:00+09:00,1.7,��,5.3,��쓌,24,86.4,0,0,0,7.5
2021-05-17T01:20:00+09:00,1.6,��쐼,5.3,��쓌,23.9,86.5,0,0,0,7.5
2021-05-17T01:21:00+09:00,1.7,��쐼,5.3,��쓌,23.8,86.6,0,0,0,7.5
2021-05-17T01:22:00+09:00,1.8,��쐼,5.7,��,23.9,87,0,0,0,7.5
2021-05-17T01:23:00+09:00,1.8,��쐼,5.7,��,24,87,0,0,0,7.5
2021-05-17T01:24:00+09:00,1.8,��쐼,5.7,��,24,86.8,0,0,0,7.5
2021-05-17T01:25:00+09:00,1.8,��쐼,5.7,��,24,86.7,0,0,0,7.5
2021-05-17T01:26:00+09:00,1.7,��쐼,5.7,��,24,86.6,0,0,0,7.5
2021-05-17T01:27:00+09:00,1.9,��쐼,5.7,��,24,86.7,0,0,0,7.5
2021-05-17T01:28:00+09:00,2.1,��쐼,5.7,��,23.9,86.8,0,0,0,7.5
2021-05-17T01:29:00+09:00,2.2,��쐼,5.7,��,24,86.8,0,0,0,7.5
2021-05-17T01:30:00+09:00,2.3,��쐼,5.7,��,24,86.7,0,0,0,7.5
2021-05-17T01:31:00+09:00,2.2,��쐼,5.7,��,24,86.6,0,0,0,7.5
2021-05-17T01:32:00+09:00,2.1,��쐼,5.6,��쐼,24,86.6,0,0,0,7.5
2021-05-17T01:33:00+09:00,1.9,��쐼,5.6,��쐼,23.9,86.7,0,0,0,7.5
2021-05-17T01:34:00+09:00,1.9,��쐼,5.6,��쐼,23.8,87,0,0,0,7.5
2021-05-17T01:35:00+09:00,1.9,��쐼,5.6,��쐼,23.8,87.2,0,0,0,7.5
2021-05-17T01:36:00+09:00,2,��쐼,5.6,��쐼,23.8,87.4,0,0,0,7.5
2021-05-17T01:37:00+09:00,1.9,��쐼,5.6,��쐼,23.8,87.6,0,0,0,7.5
2021-05-17T01:38:00+09:00,1.8,��쐼,5.4,��,23.8,87.8,0,0,0,7.5
2021-05-17T01:39:00+09:00,1.7,��쐼,4.7,�쓌,23.7,88,0,0,0,7.5
2021-05-17T01:40:00+09:00,1.7,��쐼,4.7,�쓌,23.7,88.3,0.5,0.5,0.5,8
2021-05-17T01:41:00+09:00,1.6,��쐼,4.7,�쓌,23.7,88.3,0.5,0.5,0.5,8
2021-05-17T01:42:00+09:00,1.7,��쐼,4.6,��,23.7,88.3,0.5,0.5,0.5,8
2021-05-17T01:43:00+09:00,1.6,��쐼,4.6,��,23.7,88.5,0.5,0.5,0.5,8
2021-05-17T01:44:00+09:00,1.7,��쐼,4.6,��,23.6,88.7,0.5,0.5,0.5,8
2021-05-17T01:45:00+09:00,1.6,��쐼,4.5,��,23.6,88.8,0.5,0.5,0.5,8
2021-05-17T01:46:00+09:00,1.6,��쐼,6.2,��쓌,23.5,89,0.5,0.5,0.5,8
2021-05-17T01:47:00+09:00,1.7,��쐼,6.2,��쓌,23.5,89.3,0.5,0.5,0.5,8
2021-05-17T01:48:00+09:00,1.8,��쐼,6.2,��쓌,23.4,89.6,0.5,0.5,0.5,8
2021-05-17T01:49:00+09:00,2.1,��쐼,6.8,��쐼,23.5,89.7,0.5,0.5,0.5,8
2021-05-17T01:50:00+09:00,2.1,��쐼,6.8,��쐼,23.5,89.8,0,0.5,0.5,8
2021-05-17T01:51:00+09:00,1.9,��쐼,6.8,��쐼,23.5,89.8,0,0.5,0.5,8
2021-05-17T01:52:00+09:00,1.8,��쐼,6.8,��쐼,23.4,89.9,0.5,1,1,8.5
2021-05-17T01:53:00+09:00,1.9,��쐼,6.8,��쐼,23.4,90.1,0.5,1,1,8.5
2021-05-17T01:54:00+09:00,1.9,��쐼,6.8,��쐼,23.4,90.2,0.5,1,1,8.5
2021-05-17T01:55:00+09:00,2.1,��쐼,6.8,��쐼,23.5,90.3,0.5,1,1,8.5
2021-05-17T01:56:00+09:00,2.2,��쐼,6.8,��쐼,23.6,90.1,0.5,1,1,8.5
2021-05-17T01:57:00+09:00,2.2,��쐼,6.8,��쐼,23.6,89.9,0.5,1,1,8.5
2021-05-17T01:58:00+09:00,2.2,��쐼,7,��쐼,23.6,89.8,0.5,1,1,8.5
2021-05-17T01:59:00+09:00,2.2,��쐼,7,��쐼,23.6,89.7,0.5,1,1,8.5
2021-05-17T02:00:00+09:00,2.1,��쐼,7,��쐼,23.6,89.5,0.5,1,1,8.5
2021-05-17T02:01:00+09:00,2.5,��쐼,7.7,��쓌,23.6,89.5,0.5,1,1,8.5
2021-05-17T02:02:00+09:00,2.7,��쐼,7.7,��쓌,23.6,89.3,0,1,1,8.5
2021-05-17T02:03:00+09:00,2.8,��쐼,7.7,��쓌,23.5,89.3,0,1,1,8.5
2021-05-17T02:04:00+09:00,2.9,��쐼,7.7,��쓌,23.5,89.5,0,1,1,8.5
2021-05-17T02:05:00+09:00,2.8,��쐼,7.7,��쓌,23.5,89.6,0,1,1,8.5
2021-05-17T02:06:00+09:00,2.7,��쐼,7.7,��쓌,23.4,89.8,0.5,1.5,1.5,9
2021-05-17T02:07:00+09:00,2.6,��쐼,7.7,��쓌,23.4,90,0.5,1.5,1.5,9
2021-05-17T02:08:00+09:00,2.6,��쐼,7.7,��쓌,23.4,90.1,0.5,1.5,1.5,9
2021-05-17T02:09:00+09:00,2.6,��쐼,7.7,��쓌,23.4,90.2,0.5,1.5,1.5,9
2021-05-17T02:10:00+09:00,2.8,��쐼,7.7,��쓌,23.5,90.1,0.5,1.5,1.5,9
2021-05-17T02:11:00+09:00,2.6,��쐼,7.7,��,23.5,89.9,0.5,1.5,1.5,9
2021-05-17T02:12:00+09:00,2.6,��쐼,7.8,��,23.6,89.8,0.5,1.5,1.5,9
2021-05-17T02:13:00+09:00,2.6,��,7.8,��,23.5,89.7,0.5,1.5,1.5,9
2021-05-17T02:14:00+09:00,2.7,��,7.8,��,23.5,89.7,0.5,1.5,1.5,9
2021-05-17T02:15:00+09:00,2.7,��,7.8,��,23.6,89.6,0.5,1.5,1.5,9
2021-05-17T02:16:00+09:00,2.7,��,7.8,��,23.6,89.5,0,1.5,1.5,9
2021-05-17T02:17:00+09:00,2.8,��,7.8,��,23.5,89.4,0.5,2,2,9.5
2021-05-17T02:18:00+09:00,2.9,��,7.8,��,23.5,89.5,0.5,2,2,9.5
2021-05-17T02:19:00+09:00,2.7,��,7.8,��,23.5,89.4,0.5,2,2,9.5
2021-05-17T02:20:00+09:00,2.6,��,7.8,��,23.5,89.5,0.5,2,2,9.5
2021-05-17T02:21:00+09:00,2.6,��,7.8,��,23.6,89.4,0.5,2,2,9.5
2021-05-17T02:22:00+09:00,2.5,��,7.1,��쓌,23.6,89.2,0.5,2,2,9.5
2021-05-17T02:23:00+09:00,2.6,��,6.6,��,23.6,89.1,0.5,2,2,9.5
2021-05-17T02:24:00+09:00,2.6,��,6.6,��,23.6,89,0.5,2,2,9.5
2021-05-17T02:25:00+09:00,2.7,��,6.6,��,23.5,89,0.5,2,2,9.5
2021-05-17T02:26:00+09:00,2.8,��,6.6,��,23.6,89.1,0.5,2,2,9.5
2021-05-17T02:27:00+09:00,2.9,��,6.6,��,23.6,89.1,0,2,2,9.5
2021-05-17T02:28:00+09:00,2.9,��,6.5,��,23.6,89.1,0,2,2,9.5
2021-05-17T02:29:00+09:00,3,��쐼,6.5,��,23.6,89.1,0,2,2,9.5
2021-05-17T02:30:00+09:00,3,��쐼,6.2,��쓌,23.6,88.9,0,2,2,9.5
2021-05-17T02:31:00+09:00,3,��,6.2,��쓌,23.6,88.8,0,2,2,9.5
2021-05-17T02:32:00+09:00,3,��,6.2,��쓌,23.6,88.7,0,2,2,9.5
2021-05-17T02:33:00+09:00,2.8,��,6,��,23.6,88.7,0,2,2,9.5
2021-05-17T02:34:00+09:00,2.7,��,6,��,23.6,88.6,0,2,2,9.5
2021-05-17T02:35:00+09:00,2.7,��,6,��,23.6,88.7,0,2,2,9.5
2021-05-17T02:36:00+09:00,2.7,��,6,��,23.7,88.5,0,2,2,9.5
2021-05-17T02:37:00+09:00,2.6,��,5.9,��쐼,23.6,88.4,0,2,2,9.5
2021-05-17T02:38:00+09:00,2.4,��,5.9,��쐼,23.6,88.3,0,2,2,9.5
2021-05-17T02:39:00+09:00,2.3,��,5.9,��쐼,23.6,88.3,0,2,2,9.5
2021-05-17T02:40:00+09:00,2.2,��,5.9,��쐼,23.6,88.4,0,1.5,2,9.5
2021-05-17T02:41:00+09:00,2.1,��,5.9,��쐼,23.6,88.5,0,1.5,2,9.5
2021-05-17T02:42:00+09:00,2.1,��쐼,5.9,��쐼,23.6,88.4,0,1.5,2,9.5
2021-05-17T02:43:00+09:00,2.1,��쐼,5.9,��쐼,23.5,88.6,0,1.5,2,9.5
2021-05-17T02:44:00+09:00,2,��쐼,5.9,��쐼,23.4,88.8,0,1.5,2,9.5
2021-05-17T02:45:00+09:00,1.9,��쐼,5.4,��쐼,23.4,89,0,1.5,2,9.5
2021-05-17T02:46:00+09:00,1.6,��,4,��,23.4,89.2,0,1.5,2,9.5
2021-05-17T02:47:00+09:00,1.5,��쐼,3.8,��쓌,23.5,89.2,0,1.5,2,9.5
2021-05-17T02:48:00+09:00,1.4,��쐼,3.8,��쓌,23.5,89.2,0,1.5,2,9.5
2021-05-17T02:49:00+09:00,1.4,��쐼,3.7,��,23.4,89.3,0,1.5,2,9.5
2021-05-17T02:50:00+09:00,1.3,��쐼,3.7,��,23.4,89.5,0,1.5,2,9.5
2021-05-17T02:51:00+09:00,1.1,��쐼,3.3,��,23.3,89.7,0,1.5,2,9.5
2021-05-17T02:52:00+09:00,1,��쐼,3.3,��,23.4,89.8,0,1,2,9.5
2021-05-17T02:53:00+09:00,0.9,��쐼,3.3,��,23.3,89.8,0,1,2,9.5
2021-05-17T02:54:00+09:00,0.8,��,2.8,��쓌,23.3,89.9,0,1,2,9.5
2021-05-17T02:55:00+09:00,0.6,��,2.2,��,23.2,90.2,0,1,2,9.5
2021-05-17T02:56:00+09:00,0.6,��,2,��쐼,23.2,90.5,0,1,2,9.5
2021-05-17T02:57:00+09:00,0.6,��,2,��쐼,23.4,90.5,0,1,2,9.5
2021-05-17T02:58:00+09:00,0.6,��,2.9,�쓌,23.4,90.4,0,1,2,9.5
2021-05-17T02:59:00+09:00,0.5,��쓌,2.9,�쓌,23.2,90.3,0,1,2,9.5
2021-05-17T03:00:00+09:00,0.5,��쓌,2.9,�쓌,23.3,90.5,0,1,2,9.5
2021-05-17T03:01:00+09:00,0.6,��쓌,2.9,�쓌,23.3,90.4,0,1,2,9.5
2021-05-17T03:02:00+09:00,0.6,��쓌,2.9,�쓌,23.3,90.3,0,1,2,9.5
2021-05-17T03:03:00+09:00,0.6,��,2.9,�쓌,23.4,90.2,0,1,2,9.5
2021-05-17T03:04:00+09:00,0.8,��,2.9,�쓌,23.3,90.1,0,1,2,9.5
2021-05-17T03:05:00+09:00,0.9,��,2.9,�쓌,23.3,90.2,0,1,2,9.5
2021-05-17T03:06:00+09:00,1.1,��,3.2,��,23.5,90.1,0,0.5,2,9.5
2021-05-17T03:07:00+09:00,1.1,��,3.2,��,23.4,89.8,0,0.5,2,9.5
2021-05-17T03:08:00+09:00,1.2,��,3.2,��,23.4,89.9,0,0.5,2,9.5
2021-05-17T03:09:00+09:00,1.3,��,3.2,��,23.4,89.9,0.5,1,2.5,10
2021-05-17T03:10:00+09:00,1.3,��,3.2,��,23.3,90,0.5,1,2.5,10
2021-05-17T03:11:00+09:00,1.3,��,3.2,��,23.4,90,0.5,1,2.5,10
2021-05-17T03:12:00+09:00,1.4,��,3.2,��,23.3,90,0.5,1,2.5,10
2021-05-17T03:13:00+09:00,1.5,��,3.2,��,23.4,90.1,0.5,1,2.5,10
2021-05-17T03:14:00+09:00,1.5,��,3.5,��,23.4,90,0.5,1,2.5,10
2021-05-17T03:15:00+09:00,1.7,��,4.8,��,23.3,90.1,0.5,1,2.5,10
2021-05-17T03:16:00+09:00,1.6,��,4.8,��,23.4,90.2,0.5,1,2.5,10
2021-05-17T03:17:00+09:00,1.6,��,4.8,��,23.5,90.2,0.5,0.5,2.5,10
2021-05-17T03:18:00+09:00,1.5,��쐼,4.8,��,23.4,89.9,0.5,0.5,2.5,10
2021-05-17T03:19:00+09:00,1.5,��,4.8,��,23.4,89.8,0,0.5,2.5,10
2021-05-17T03:20:00+09:00,1.5,��쐼,4.8,��,23.3,89.8,0,0.5,2.5,10
2021-05-17T03:21:00+09:00,1.5,��쐼,4.8,��,23.2,90.1,0,0.5,2.5,10
2021-05-17T03:22:00+09:00,1.4,��쐼,4.8,��,23.2,90.3,0,0.5,2.5,10
2021-05-17T03:23:00+09:00,1.3,��쐼,4.8,��,23.3,90.6,0,0.5,2.5,10
2021-05-17T03:24:00+09:00,1.1,��쐼,4.8,��,23.3,90.5,0,0.5,2.5,10
2021-05-17T03:25:00+09:00,0.9,��쐼,2.9,��,23.4,90.4,0.5,1,3,10.5
2021-05-17T03:26:00+09:00,1,��쐼,2.9,��,23.5,90.1,0.5,1,3,10.5
2021-05-17T03:27:00+09:00,1,��,3.7,��,23.4,89.8,0.5,1,3,10.5
2021-05-17T03:28:00+09:00,1,��,3.7,��,23.5,89.7,0.5,1,3,10.5
2021-05-17T03:29:00+09:00,1.1,��,3.7,��,23.3,89.7,0.5,1,3,10.5
2021-05-17T03:30:00+09:00,1.2,��,3.9,�쐼,23.4,89.9,0.5,1,3,10.5
2021-05-17T03:31:00+09:00,1.3,��쐼,3.9,�쐼,23.4,89.8,0.5,1,3,10.5
2021-05-17T03:32:00+09:00,1.4,��쐼,3.9,�쐼,23.4,89.9,0.5,1,3,10.5
2021-05-17T03:33:00+09:00,1.4,��쐼,3.9,�쐼,23.4,89.9,0.5,1,3,10.5
2021-05-17T03:34:00+09:00,1.5,��쐼,3.9,�쐼,23.3,89.9,0.5,1,3,10.5
2021-05-17T03:35:00+09:00,1.5,��쐼,3.9,�쐼,23.2,90.1,0,1,3,10.5
2021-05-17T03:36:00+09:00,1.4,��쐼,3.9,�쐼,23.2,90.3,0,1,3,10.5
2021-05-17T03:37:00+09:00,1.3,��쐼,3.9,�쐼,23.2,90.6,0,1,3,10.5
2021-05-17T03:38:00+09:00,1.2,�쐼,3.9,�쐼,23.1,90.7,0,1,3,10.5
2021-05-17T03:39:00+09:00,1.1,�쐼,3.9,�쐼,23,91,0,1,3,10.5
2021-05-17T03:40:00+09:00,0.8,�쐼,3.3,��쐼,23,91.4,0.5,1.5,3.5,11
2021-05-17T03:41:00+09:00,0.7,�쐼,3.3,��쐼,22.9,91.8,0.5,1.5,3.5,11
2021-05-17T03:42:00+09:00,0.6,�쐼,3.3,��쐼,22.9,92.2,0.5,1.5,3.5,11
2021-05-17T03:43:00+09:00,0.5,�쐼,3.3,��쐼,22.9,92.6,0.5,1.5,3.5,11
2021-05-17T03:44:00+09:00,0.4,�쐼,3.3,��쐼,22.9,92.7,0.5,1.5,3.5,11
2021-05-17T03:45:00+09:00,0.4,�쐼,1.7,���쓌,22.8,92.8,0.5,1.5,3.5,11
2021-05-17T03:46:00+09:00,0.5,��쐼,2.2,���쓌,22.6,93,0.5,1.5,3.5,11
2021-05-17T03:47:00+09:00,0.5,��,2.2,���쓌,22.5,93.4,0.5,1.5,3.5,11
2021-05-17T03:48:00+09:00,0.6,��쓌,2.2,���쓌,22.5,94,0.5,1.5,3.5,11
2021-05-17T03:49:00+09:00,0.7,�쓌,2.2,���쓌,22.5,94.5,0.5,1.5,3.5,11
2021-05-17T03:50:00+09:00,0.8,���쓌,3.4,��쐼,22.5,94.8,0,1.5,3.5,11
2021-05-17T03:51:00+09:00,1,�쓌,3.6,��,22.7,95.1,0,1.5,3.5,11
2021-05-17T03:52:00+09:00,1.1,��쓌,3.6,��,22.9,95.2,0,1.5,3.5,11
2021-05-17T03:53:00+09:00,1.2,��쓌,3.6,��,22.9,94.9,0,1.5,3.5,11
2021-05-17T03:54:00+09:00,1.3,��,3.6,��,22.8,94.7,0,1.5,3.5,11
2021-05-17T03:55:00+09:00,1.3,��쐼,3.6,��,23,94.7,0,1.5,3.5,11
2021-05-17T03:56:00+09:00,1.3,�쐼,3.6,��,23,94.2,0,1.5,3.5,11
2021-05-17T03:57:00+09:00,1.4,�쐼,3.6,��,23,93.8,0.5,2,4,11.5
2021-05-17T03:58:00+09:00,1.4,�쐼,3.6,��,22.9,93.7,1,2.5,4.5,12
2021-05-17T03:59:00+09:00,1.4,�쐼,3.6,��,22.8,93.7,1,2.5,4.5,12
2021-05-17T04:00:00+09:00,1.4,�쐼,3.6,��,22.7,93.8,1.5,3,5,12.5
2021-05-17T04:01:00+09:00,1.2,�쐼,3.6,��쐼,22.6,94.1,2,3.5,5.5,13
2021-05-17T04:02:00+09:00,1.1,�쐼,3.6,��쐼,22.6,94.3,2.5,4,6,13.5
2021-05-17T04:03:00+09:00,1.2,�쐼,3.6,��쐼,22.6,94.6,2.5,4,6,13.5
2021-05-17T04:04:00+09:00,1.2,�쐼,3.6,��쐼,22.7,94.9,2.5,4,6,13.5
2021-05-17T04:05:00+09:00,1.2,�쐼,2.7,��,22.7,94.9,2.5,4,6,13.5
2021-05-17T04:06:00+09:00,1.1,�쐼,2.7,��,22.6,94.9,2.5,4,6,13.5
2021-05-17T04:07:00+09:00,1.1,��쐼,2.7,��,22.6,95,2,4,6,13.5
2021-05-17T04:08:00+09:00,1.1,��쐼,2.7,��,22.7,95,1.5,4,6,13.5
2021-05-17T04:09:00+09:00,1,��쐼,2.7,��,22.6,95,1.5,3.5,6,13.5
2021-05-17T04:10:00+09:00,1,��쐼,2.7,��,22.6,95,1,3.5,6,13.5
2021-05-17T04:11:00+09:00,1,��쐼,2.7,��,22.6,95.1,0.5,3.5,6,13.5
2021-05-17T04:12:00+09:00,1.1,��,2.9,��쐼,22.6,95.1,0,3.5,6,13.5
2021-05-17T04:13:00+09:00,1,��,2.9,��쐼,22.6,95.1,0,3.5,6,13.5
2021-05-17T04:14:00+09:00,1,��,2.9,��쐼,22.6,95.1,0,3.5,6,13.5
2021-05-17T04:15:00+09:00,0.9,��,2.9,��쐼,22.6,95.2,0,3.5,6,13.5
2021-05-17T04:16:00+09:00,0.9,��,2.9,��쐼,22.5,95.2,0.5,4,6.5,14
2021-05-17T04:17:00+09:00,0.8,��쐼,2.9,��쐼,22.5,95.2,0.5,4,6.5,14
2021-05-17T04:18:00+09:00,0.7,��쐼,2.9,��쐼,22.5,95.3,0.5,4,6.5,14
2021-05-17T04:19:00+09:00,0.7,��쐼,2.9,��쐼,22.5,95.4,0.5,4,6.5,14
2021-05-17T04:20:00+09:00,0.6,�쐼,2.9,��쐼,22.4,95.4,0.5,4,6.5,14
2021-05-17T04:21:00+09:00,0.5,���k��,2.9,��쐼,22.3,95.5,0.5,4,6.5,14
2021-05-17T04:22:00+09:00,0.4,�k,1.9,��,22.3,95.6,0.5,4,6.5,14
2021-05-17T04:23:00+09:00,0.4,�k,1.1,�쓌,22.3,95.7,0.5,4,6.5,14
2021-05-17T04:24:00+09:00,0.3,�k,1,���k��,22.3,95.9,0.5,4,6.5,14
2021-05-17T04:25:00+09:00,0.4,�k�k��,1.5,�쓌,22.3,95.9,0.5,3.5,6.5,14
2021-05-17T04:26:00+09:00,0.4,�k��,1.5,�쓌,22.3,96,0,3.5,6.5,14
2021-05-17T04:27:00+09:00,0.3,�k��,1.5,�쓌,22.3,96,0,3.5,6.5,14
2021-05-17T04:28:00+09:00,0.4,���k��,1.5,�쓌,22.3,96.1,0,3.5,6.5,14
2021-05-17T04:29:00+09:00,0.3,��,1.5,�쓌,22.2,96.1,0,3.5,6.5,14
2021-05-17T04:30:00+09:00,0.3,��,1.5,�쓌,22.2,96.2,0,3.5,6.5,14
2021-05-17T04:31:00+09:00,0.4,��,1.5,�쓌,22.2,96.3,0,3.5,6.5,14
2021-05-17T04:32:00+09:00,0.4,�쓌,1.5,�쓌,22.2,96.4,0,3.5,6.5,14
2021-05-17T04:33:00+09:00,0.4,�쓌,1.5,�쓌,22.2,96.4,0,3.5,6.5,14
2021-05-17T04:34:00+09:00,0.4,��쓌,1.5,�쓌,22.2,96.4,0,3.5,6.5,14
2021-05-17T04:35:00+09:00,0.3,��,1.5,��쐼,22.2,96.5,0,3.5,6.5,14
2021-05-17T04:36:00+09:00,0.3,�쐼,1.5,��쐼,22.3,96.6,0,3.5,6.5,14
2021-05-17T04:37:00+09:00,0.3,�쐼,1.5,��쐼,22.3,96.6,0,3.5,6.5,14
2021-05-17T04:38:00+09:00,0.4,���쐼,3.4,�쐼,22.3,96.6,0,3.5,6.5,14
2021-05-17T04:39:00+09:00,0.6,���쐼,3.4,�쐼,22.4,96.6,0,3.5,6.5,14
2021-05-17T04:40:00+09:00,0.8,���쐼,3.4,�쐼,22.4,96.6,0.5,3.5,7,14.5
2021-05-17T04:41:00+09:00,0.9,���쐼,3.4,�쐼,22.5,96.5,0.5,3.5,7,14.5
2021-05-17T04:42:00+09:00,0.9,�쐼,3.4,�쐼,22.5,96.4,0.5,3.5,7,14.5
2021-05-17T04:43:00+09:00,1,�쐼,3.4,�쐼,22.4,96.3,1,4,7.5,15
2021-05-17T04:44:00+09:00,1.1,�쐼,3.4,�쐼,22.5,96.2,1,4,7.5,15
2021-05-17T04:45:00+09:00,1.2,�쐼,3.4,�쐼,22.5,96.1,1,4,7.5,15
2021-05-17T04:46:00+09:00,1.2,�쐼,3.4,�쐼,22.4,96.1,1,4,7.5,15
2021-05-17T04:47:00+09:00,1.3,�쐼,3.4,�쐼,22.4,96,1,4,7.5,15
2021-05-17T04:48:00+09:00,1.3,�쐼,2.9,�쐼,22.4,96,1,4,7.5,15
2021-05-17T04:49:00+09:00,1.2,�쐼,2.8,�쐼,22.5,96,1,4,7.5,15
2021-05-17T04:50:00+09:00,1,�쐼,2.8,�쐼,22.5,96,1,4.5,8,15.5
2021-05-17T04:51:00+09:00,0.9,�쐼,2.8,�쐼,22.5,95.9,1,4.5,8,15.5
2021-05-17T04:52:00+09:00,0.9,�쐼,2.8,�쐼,22.4,95.8,1.5,5,8.5,16
2021-05-17T04:53:00+09:00,0.8,�쐼,2.8,�쐼,22.3,95.8,1,5,8.5,16
2021-05-17T04:54:00+09:00,0.7,�쐼,2.8,�쐼,22.3,95.9,1,5,8.5,16
2021-05-17T04:55:00+09:00,0.6,�쐼,2.8,�쐼,22.4,95.9,1,5,8.5,16
2021-05-17T04:56:00+09:00,0.5,�쐼,2.8,�쐼,22.4,95.9,1,5,8.5,16
2021-05-17T04:57:00+09:00,0.5,��쐼,2.2,��쐼,22.5,96,1,4.5,8.5,16
2021-05-17T04:58:00+09:00,0.4,��,2.2,��쐼,22.5,95.9,1,4,8.5,16
2021-05-17T04:59:00+09:00,0.4,��,1.6,�쓌,22.4,95.8,1,4,8.5,16
2021-05-17T05:00:00+09:00,0.4,��,1.6,�쓌,22.4,95.8,0.5,3.5,8.5,16
2021-05-17T05:01:00+09:00,0.4,��쓌,1.6,�쓌,22.4,95.9,0.5,3,8.5,16
2021-05-17T05:02:00+09:00,0.4,��쓌,1.6,�쓌,22.5,95.9,0,2.5,8.5,16
2021-05-17T05:03:00+09:00,0.5,��쓌,2.3,��쓌,22.6,95.9,0,2.5,8.5,16
2021-05-17T05:04:00+09:00,0.6,��,2.3,��쓌,22.6,95.8,0,2.5,8.5,16
2021-05-17T05:05:00+09:00,0.6,��,2.3,��쓌,22.6,95.7,0,2.5,8.5,16
2021-05-17T05:06:00+09:00,0.7,��쐼,2.3,��쓌,22.5,95.6,0,2.5,8.5,16
2021-05-17T05:07:00+09:00,0.7,�쐼,2.3,��쓌,22.5,95.6,0,2.5,8.5,16
2021-05-17T05:08:00+09:00,0.8,���쐼,2.3,��쓌,22.4,95.6,0,2.5,8.5,16
2021-05-17T05:09:00+09:00,1,���쐼,2.3,��쓌,22.4,95.6,0.5,3,9,16.5
2021-05-17T05:10:00+09:00,1,���쐼,2.3,��쓌,22.3,95.7,0.5,3,9,16.5
2021-05-17T05:11:00+09:00,1,���쐼,2.3,��쓌,22.3,95.7,1,3.5,9.5,17
2021-05-17T05:12:00+09:00,1,���쐼,2.3,��쓌,22.2,95.8,1.5,4,10,17.5
2021-05-17T05:13:00+09:00,1,���쐼,1.9,��,22.2,95.9,1.5,4,10,17.5
2021-05-17T05:14:00+09:00,1,���쐼,1.9,��,22.2,95.9,1.5,4,10,17.5
2021-05-17T05:15:00+09:00,0.9,�쐼,1.9,��,22.1,96,2,4.5,10.5,18
2021-05-17T05:16:00+09:00,0.9,�쐼,1.9,��,22.1,96.1,2,4,10.5,18
2021-05-17T05:17:00+09:00,0.7,��쐼,1.9,��,22.1,96.2,2.5,4.5,11,18.5
2021-05-17T05:18:00+09:00,0.6,��,1.9,��,22.1,96.4,2.5,4.5,11,18.5
2021-05-17T05:19:00+09:00,0.4,��쓌,1.8,��쓌,22.1,96.4,2.5,5,11.5,19
2021-05-17T05:20:00+09:00,0.3,��쓌,1.8,��쓌,22.1,96.5,2.5,5,11.5,19
2021-05-17T05:21:00+09:00,0.3,�쓌,1.8,��쓌,22,96.5,3,6,12.5,20
2021-05-17T05:22:00+09:00,0.3,�쓌,1.8,��쓌,22,96.6,3,6.5,13,20.5
2021-05-17T05:23:00+09:00,0.2,�É�,1.8,��쓌,22,96.7,3,6.5,13,20.5
2021-05-17T05:24:00+09:00,0.2,�É�,1.2,��,22,96.7,3.5,7,13.5,21
2021-05-17T05:25:00+09:00,0.2,�É�,0.9,��쓌,22,96.7,3.5,7.5,14,21.5
2021-05-17T05:26:00+09:00,0.1,�É�,0.7,��쓌,22,96.8,3.5,7.5,14,21.5
2021-05-17T05:27:00+09:00,0.1,�É�,0.7,��쓌,22,96.8,3,7.5,14,21.5
2021-05-17T05:28:00+09:00,0.1,�É�,0.7,��쓌,22,96.9,3.5,8,14.5,22
2021-05-17T05:29:00+09:00,0.1,�É�,0.7,��쓌,22,96.9,3,8,14.5,22
2021-05-17T05:30:00+09:00,0.1,�É�,1.1,���k��,21.9,96.9,3.5,8.5,15,22.5
2021-05-17T05:31:00+09:00,0.2,�É�,1.1,���k��,21.9,96.9,2.5,8.5,15,22.5
2021-05-17T05:32:00+09:00,0.3,���쓌,1.1,���k��,21.9,97,2,8.5,15,22.5
2021-05-17T05:33:00+09:00,0.3,��,1.1,���k��,21.9,97,2,8.5,15,22.5
2021-05-17T05:34:00+09:00,0.3,��,1.1,���k��,21.9,97.1,2,9,15.5,23
2021-05-17T05:35:00+09:00,0.2,�É�,1.1,���k��,21.9,97.1,1.5,9,15.5,23
2021-05-17T05:36:00+09:00,0.3,��,1.1,���k��,21.8,97.1,1.5,9,15.5,23
2021-05-17T05:37:00+09:00,0.3,���k��,1.1,���k��,21.8,97.2,1.5,9,15.5,23
2021-05-17T05:38:00+09:00,0.4,���k��,1.1,���k��,21.8,97.2,1,9,15.5,23
2021-05-17T05:39:00+09:00,0.4,���k��,1.1,���k��,21.8,97.3,1,9,15.5,23
2021-05-17T05:40:00+09:00,0.4,�k��,1.1,�k��,21.8,97.3,0.5,8.5,15.5,23
2021-05-17T05:41:00+09:00,0.4,�k��,1.1,�k��,21.8,97.3,1,9,16,23.5
2021-05-17T05:42:00+09:00,0.4,�k��,1.1,�k��,21.8,97.3,1,9,16,23.5
2021-05-17T05:43:00+09:00,0.4,�k��,1.1,�k��,21.8,97.4,1,8.5,16,23.5
2021-05-17T05:44:00+09:00,0.4,�k��,1.1,�k��,21.9,97.4,0.5,8.5,16,23.5
2021-05-17T05:45:00+09:00,0.4,�k�k��,1.1,�k��,21.8,97.5,0.5,8.5,16,23.5
2021-05-17T05:46:00+09:00,0.4,�k�k��,1.1,�k��,21.9,97.5,0.5,8.5,16,23.5
2021-05-17T05:47:00+09:00,0.4,�k�k��,1.1,�k��,21.9,97.6,0.5,8.5,16,23.5
2021-05-17T05:48:00+09:00,0.3,�k�k��,1.1,���k��,21.9,97.6,0.5,8.5,16,23.5
2021-05-17T05:49:00+09:00,0.3,�k��,1.1,���k��,21.9,97.5,0.5,8.5,16,23.5
2021-05-17T05:50:00+09:00,0.2,�É�,1.1,���k��,21.9,97.6,0.5,8,16,23.5
2021-05-17T05:51:00+09:00,0.3,���k��,2.2,�쐼,21.9,97.6,0,8,16,23.5
2021-05-17T05:52:00+09:00,0.3,��,2.2,�쐼,21.9,97.5,0,7.5,16,23.5
2021-05-17T05:53:00+09:00,0.4,��,2.2,�쐼,22,97.6,0,7.5,16,23.5
2021-05-17T05:54:00+09:00,0.5,���쐼,2.4,�쐼,22.1,97.6,0.5,8,16.5,24
2021-05-17T05:55:00+09:00,0.6,���쐼,2.4,�쐼,22.1,97.5,0.5,8,16.5,24
2021-05-17T05:56:00+09:00,0.6,���쐼,2.4,�쐼,22.1,97.5,0.5,8,16.5,24
2021-05-17T05:57:00+09:00,0.7,���쐼,2.4,�쐼,22,97.5,0.5,8,16.5,24
2021-05-17T05:58:00+09:00,0.7,��쐼,2.4,�쐼,22,97.4,0.5,8,16.5,24
2021-05-17T05:59:00+09:00,0.8,��,2.4,�쐼,22,97.4,0.5,8,16.5,24
2021-05-17T06:00:00+09:00,0.9,��,2.4,�쐼,22,97.3,0.5,8,16.5,24
2021-05-17T06:01:00+09:00,0.9,��쓌,2.4,�쐼,22,97.3,0.5,8,16.5,24
2021-05-17T06:02:00+09:00,0.9,�쓌,3.5,��,22,97.3,0.5,8,16.5,24
2021-05-17T06:03:00+09:00,1,�쓌,4.6,��쓌,22.1,97.3,0.5,8,16.5,24
2021-05-17T06:04:00+09:00,0.9,�쓌,4.6,��쓌,22.2,97.3,0,8,16.5,24
2021-05-17T06:05:00+09:00,1,�쓌,4.6,��쓌,22.3,97.3,0,8,16.5,24
2021-05-17T06:06:00+09:00,1,�쓌,4.6,��쓌,22.3,97.2,0,8,16.5,24
2021-05-17T06:07:00+09:00,1.1,��쓌,4.6,��쓌,22.4,97,0,8,16.5,24
2021-05-17T06:08:00+09:00,1.2,��쓌,4.6,��쓌,22.4,96.8,0,8,16.5,24
2021-05-17T06:09:00+09:00,1.3,��쓌,4.6,��쓌,22.4,96.6,0,7.5,16.5,24
2021-05-17T06:10:00+09:00,1.3,��,4.6,��쓌,22.4,96.5,0,7.5,16.5,24
2021-05-17T06:11:00+09:00,1.2,��,4.6,��쓌,22.4,96.4,0.5,7.5,17,24.5
2021-05-17T06:12:00+09:00,1.1,��,4.6,��쓌,22.4,96.2,0.5,7,17,24.5
2021-05-17T06:13:00+09:00,1.1,��,3.9,�쓌,22.4,96.2,0.5,7,17,24.5
2021-05-17T06:14:00+09:00,1,��,3.9,�쓌,22.3,96.1,0.5,7,17,24.5
2021-05-17T06:15:00+09:00,1,��쐼,3.9,�쓌,22.3,96.1,0.5,6.5,17,24.5
2021-05-17T06:16:00+09:00,0.9,��,3.9,�쓌,22.3,96.1,0.5,6.5,17,24.5
2021-05-17T06:17:00+09:00,0.9,��,3.9,�쓌,22.4,96.1,0.5,6,17,24.5
2021-05-17T06:18:00+09:00,0.9,��쐼,3.9,�쓌,22.5,96,0.5,6,17,24.5
2021-05-17T06:19:00+09:00,0.8,��쐼,3,�쐼,22.6,95.8,0.5,5.5,17,24.5
2021-05-17T06:20:00+09:00,0.8,��쐼,3,�쐼,22.7,95.6,0.5,5.5,17,24.5